owner,sensor,date,latitude,longitude,vertical_datum,direction_of_sea_water_velocity,sea_water_speed,upward_sea_water_velocity,qcFlag 
TABS,ioos:station:wmo:42049:1,2013-09-01T00:00:00Z,28.3507,-96.0058,2.0,284.0054926,22.3132808,-99999.0,'11111222,11111222,99999999' 
TABS,ioos:station:wmo:42049:1,2013-09-01T00:30:00Z,28.3507,-96.0058,2.0,282.5543695,22.22127359,-99999.0,'11111222,11111222,99999999' 
TABS,ioos:station:wmo:42049:1,2013-09-01T01:00:00Z,28.3507,-96.0058,2.0,287.9940637,23.40471106,-99999.0,'11111222,11111222,99999999' 
TABS,ioos:station:wmo:42049:1,2013-09-01T01:30:00Z,28.3507,-96.0058,2.0,289.4660217,21.09580527,-99999.0,'11111222,11111222,99999999' 
TABS,ioos:station:wmo:42049:1,2013-09-01T02:00:00Z,28.3507,-96.0058,2.0,307.8444621,21.17306071,-99999.0,'11111222,11111222,99999999' 
TABS,ioos:station:wmo:42049:1,2013-09-01T02:30:00Z,28.3507,-96.0058,2.0,304.4196846,17.86834072,-99999.0,'11111222,11111222,99999999' 
TABS,ioos:station:wmo:42049:1,2013-09-01T03:00:00Z,28.3507,-96.0058,2.0,324.5079959,20.54793907,-99999.0,'11111222,11111222,99999999' 
TABS,ioos:station:wmo:42049:1,2013-09-01T03:30:00Z,28.3507,-96.0058,2.0,333.0702859,21.06418762,-99999.0,'11111222,11111222,99999999' 
TABS,ioos:station:wmo:42049:1,2013-09-01T04:00:00Z,28.3507,-96.0058,2.0,335.1412243,19.07764398,-99999.0,'11111222,11111222,99999999' 
TABS,ioos:station:wmo:42049:1,2013-09-01T04:30:00Z,28.3507,-96.0058,2.0,340.1954526,14.55063572,-99999.0,'11111222,11111222,99999999' 
TABS,ioos:station:wmo:42049:1,2013-09-01T05:00:00Z,28.3507,-96.0058,2.0,345.1555773,17.01799342,-99999.0,'11111222,11111222,99999999' 
TABS,ioos:station:wmo:42049:1,2013-09-01T05:30:00Z,28.3507,-96.0058,2.0,346.3498232,13.68659563,-99999.0,'11111222,11111222,99999999' 
TABS,ioos:station:wmo:42049:1,2013-09-01T06:00:00Z,28.3507,-96.0058,2.0,356.0117397,10.92646329,-99999.0,'11111222,11111222,99999999' 
TABS,ioos:station:wmo:42049:1,2013-09-01T06:30:00Z,28.3507,-96.0058,2.0,1.720713781,7.993603693,-99999.0,'11133222,11111222,99999999' 
TABS,ioos:station:wmo:42049:1,2013-09-01T07:00:00Z,28.3507,-96.0058,2.0,11.72270402,8.170410026,-99999.0,'11133222,11111222,99999999' 
TABS,ioos:station:wmo:42049:1,2013-09-01T07:30:00Z,28.3507,-96.0058,2.0,14.49682263,8.149460105,-99999.0,'11133222,11111222,99999999' 
TABS,ioos:station:wmo:42049:1,2013-09-01T08:00:00Z,28.3507,-96.0058,2.0,18.49794032,5.76799792,-99999.0,'11133222,11111222,99999999' 
TABS,ioos:station:wmo:42049:1,2013-09-01T08:30:00Z,28.3507,-96.0058,2.0,9.334228218,8.076942491,-99999.0,'11133222,11111222,99999999' 
TABS,ioos:station:wmo:42049:1,2013-09-01T09:00:00Z,28.3507,-96.0058,2.0,22.16469169,10.84111157,-99999.0,'11111222,11111222,99999999' 
TABS,ioos:station:wmo:42049:1,2013-09-01T09:30:00Z,28.3507,-96.0058,2.0,18.74992424,4.604345773,-99999.0,'11133222,11111222,99999999' 
TABS,ioos:station:wmo:42049:1,2013-09-01T10:00:00Z,28.3507,-96.0058,2.0,55.55305255,6.718005656,-99999.0,'11133222,11111222,99999999' 
TABS,ioos:station:wmo:42049:1,2013-09-01T10:30:00Z,28.3507,-96.0058,2.0,61.02304761,5.738362136,-99999.0,'11133222,11111222,99999999' 
TABS,ioos:station:wmo:42049:1,2013-09-01T11:00:00Z,28.3507,-96.0058,2.0,53.06871258,5.592003219,-99999.0,'11133222,11111222,99999999' 
TABS,ioos:station:wmo:42049:1,2013-09-01T11:30:00Z,28.3507,-96.0058,2.0,64.69271613,6.316177642,-99999.0,'11133222,11111222,99999999' 
TABS,ioos:station:wmo:42049:1,2013-09-01T12:00:00Z,28.3507,-96.0058,2.0,75.96378935,3.380946613,-99999.0,'11133222,11111222,99999999' 
TABS,ioos:station:wmo:42049:1,2013-09-01T12:30:00Z,28.3507,-96.0058,2.0,87.18126822,5.897134898,-99999.0,'11133222,11111222,99999999' 
TABS,ioos:station:wmo:42049:1,2013-09-01T13:00:00Z,28.3507,-96.0058,2.0,71.90113527,6.470131374,-99999.0,'11133222,11111222,99999999' 
TABS,ioos:station:wmo:42049:1,2013-09-01T13:30:00Z,28.3507,-96.0058,2.0,86.30541047,5.741933472,-99999.0,'11133222,11111222,99999999' 
TABS,ioos:station:wmo:42049:1,2013-09-01T14:00:00Z,28.3507,-96.0058,2.0,73.15946977,4.659839053,-99999.0,'11133222,11111222,99999999' 
TABS,ioos:station:wmo:42049:1,2013-09-01T14:30:00Z,28.3507,-96.0058,2.0,76.65975429,5.59085861,-99999.0,'11133222,11111222,99999999' 
TABS,ioos:station:wmo:42049:1,2013-09-01T15:00:00Z,28.3507,-96.0058,2.0,142.9134225,17.46212473,-99999.0,'11111222,11111222,99999999' 
TABS,ioos:station:wmo:42049:1,2013-09-01T15:30:00Z,28.3507,-96.0058,2.0,151.7009106,21.43134387,-99999.0,'11111222,11111222,99999999' 
TABS,ioos:station:wmo:42049:1,2013-09-01T16:00:00Z,28.3507,-96.0058,2.0,167.2979671,20.82975756,-99999.0,'11111222,11111222,99999999' 
TABS,ioos:station:wmo:42049:1,2013-09-01T16:30:00Z,28.3507,-96.0058,2.0,168.7971699,24.08898711,-99999.0,'11111222,11111222,99999999' 
TABS,ioos:station:wmo:42049:1,2013-09-01T17:00:00Z,28.3507,-96.0058,2.0,181.6996111,22.24979101,-99999.0,'11111222,11111222,99999999' 
TABS,ioos:station:wmo:42049:1,2013-09-01T17:30:00Z,28.3507,-96.0058,2.0,186.1842482,21.53533143,-99999.0,'11111222,11111222,99999999' 
TABS,ioos:station:wmo:42049:1,2013-09-01T18:00:00Z,28.3507,-96.0058,2.0,188.890192,23.55297221,-99999.0,'11111222,11111222,99999999' 
TABS,ioos:station:wmo:42049:1,2013-09-01T18:30:00Z,28.3507,-96.0058,2.0,201.315274,21.89798164,-99999.0,'11111222,11111222,99999999' 
TABS,ioos:station:wmo:42049:1,2013-09-01T19:00:00Z,28.3507,-96.0058,2.0,203.4034056,23.11139329,-99999.0,'11111222,11111222,99999999' 
TABS,ioos:station:wmo:42049:1,2013-09-01T19:30:00Z,28.3507,-96.0058,2.0,204.8971055,22.58938246,-99999.0,'11111222,11111222,99999999' 
TABS,ioos:station:wmo:42049:1,2013-09-01T20:00:00Z,28.3507,-96.0058,2.0,213.8686196,23.99090036,-99999.0,'11111222,11111222,99999999' 
TABS,ioos:station:wmo:42049:1,2013-09-01T20:30:00Z,28.3507,-96.0058,2.0,215.7213844,24.25286993,-99999.0,'11111222,11111222,99999999' 
TABS,ioos:station:wmo:42049:1,2013-09-01T21:00:00Z,28.3507,-96.0058,2.0,226.4356683,23.41966054,-99999.0,'11111222,11111222,99999999' 
TABS,ioos:station:wmo:42049:1,2013-09-01T21:30:00Z,28.3507,-96.0058,2.0,235.386297,23.92455224,-99999.0,'11111222,11111222,99999999' 
TABS,ioos:station:wmo:42049:1,2013-09-01T22:00:00Z,28.3507,-96.0058,2.0,243.9466112,24.52170059,-99999.0,'11111222,11111222,99999999' 
TABS,ioos:station:wmo:42049:1,2013-09-01T22:30:00Z,28.3507,-96.0058,2.0,249.3137049,23.75122102,-99999.0,'11111222,11111222,99999999' 
TABS,ioos:station:wmo:42049:1,2013-09-01T23:00:00Z,28.3507,-96.0058,2.0,256.6525419,22.78544492,-99999.0,'11111222,11111222,99999999' 
TABS,ioos:station:wmo:42049:1,2013-09-01T23:30:00Z,28.3507,-96.0058,2.0,264.4911898,21.14765708,-99999.0,'11111222,11111222,99999999' 
TABS,ioos:station:wmo:42049:1,2013-09-02T00:00:00Z,28.3507,-96.0058,2.0,277.7222287,22.02976396,-99999.0,'11111222,11111222,99999999' 
TABS,ioos:station:wmo:42049:1,2013-09-02T00:30:00Z,28.3507,-96.0058,2.0,284.051205,19.07057681,-99999.0,'11111222,11111222,99999999' 
TABS,ioos:station:wmo:42049:1,2013-09-02T01:00:00Z,28.3507,-96.0058,2.0,292.6292053,24.56076953,-99999.0,'11111222,11111222,99999999' 
TABS,ioos:station:wmo:42049:1,2013-09-02T01:30:00Z,28.3507,-96.0058,2.0,304.028415,25.8577996,-99999.0,'11111222,11111222,99999999' 
TABS,ioos:station:wmo:42049:1,2013-09-02T02:00:00Z,28.3507,-96.0058,2.0,318.6377278,24.40900039,-99999.0,'11111222,11111222,99999999' 
TABS,ioos:station:wmo:42049:1,2013-09-02T02:30:00Z,28.3507,-96.0058,2.0,329.0242513,24.01494743,-99999.0,'11111222,11111222,99999999' 
TABS,ioos:station:wmo:42049:1,2013-09-02T03:00:00Z,28.3507,-96.0058,2.0,337.5765656,27.18554395,-99999.0,'11111222,11111222,99999999' 
TABS,ioos:station:wmo:42049:1,2013-09-02T03:30:00Z,28.3507,-96.0058,2.0,350.4416104,32.27814276,-99999.0,'11111222,11111222,99999999' 
TABS,ioos:station:wmo:42049:1,2013-09-02T04:00:00Z,28.3507,-96.0058,2.0,349.5985782,32.29065654,-99999.0,'11111222,11111222,99999999' 
TABS,ioos:station:wmo:42049:1,2013-09-02T04:30:00Z,28.3507,-96.0058,2.0,353.1758396,21.03906129,-99999.0,'11111222,11111222,99999999' 
TABS,ioos:station:wmo:42049:1,2013-09-02T05:00:00Z,28.3507,-96.0058,2.0,358.8562098,26.04519149,-99999.0,'11111222,11111222,99999999' 
TABS,ioos:station:wmo:42049:1,2013-09-02T05:30:00Z,28.3507,-96.0058,2.0,3.567871504,24.74796153,-99999.0,'11111222,11111222,99999999' 
TABS,ioos:station:wmo:42049:1,2013-09-02T06:00:00Z,28.3507,-96.0058,2.0,9.551825581,16.87393256,-99999.0,'11111222,11111222,99999999' 
TABS,ioos:station:wmo:42049:1,2013-09-02T06:30:00Z,28.3507,-96.0058,2.0,13.64164456,18.65628312,-99999.0,'11111222,11111222,99999999' 
TABS,ioos:station:wmo:42049:1,2013-09-02T07:00:00Z,28.3507,-96.0058,2.0,23.01395582,14.65650026,-99999.0,'11111222,11111222,99999999' 
TABS,ioos:station:wmo:42049:1,2013-09-02T07:30:00Z,28.3507,-96.0058,2.0,30.80232545,12.77155041,-99999.0,'11111222,11111222,99999999' 
TABS,ioos:station:wmo:42049:1,2013-09-02T08:00:00Z,28.3507,-96.0058,2.0,23.62953293,12.57425942,-99999.0,'11111222,11111222,99999999' 
TABS,ioos:station:wmo:42049:1,2013-09-02T08:30:00Z,28.3507,-96.0058,2.0,46.74038868,10.71053687,-99999.0,'11111222,11111222,99999999' 
TABS,ioos:station:wmo:42049:1,2013-09-02T09:00:00Z,28.3507,-96.0058,2.0,46.94931331,9.77079833,-99999.0,'11133222,11111222,99999999' 
TABS,ioos:station:wmo:42049:1,2013-09-02T09:30:00Z,28.3507,-96.0058,2.0,54.16243085,7.327189093,-99999.0,'11133222,11111222,99999999' 
TABS,ioos:station:wmo:42049:1,2013-09-02T10:00:00Z,28.3507,-96.0058,2.0,44.83916283,10.06924029,-99999.0,'11111222,11111222,99999999' 
TABS,ioos:station:wmo:42049:1,2013-09-02T10:30:00Z,28.3507,-96.0058,2.0,38.84495128,10.15603269,-99999.0,'11111222,11111222,99999999' 
TABS,ioos:station:wmo:42049:1,2013-09-02T11:00:00Z,28.3507,-96.0058,2.0,51.62412237,11.03381167,-99999.0,'11111222,11111222,99999999' 
TABS,ioos:station:wmo:42049:1,2013-09-02T11:30:00Z,28.3507,-96.0058,2.0,57.13537578,11.16727362,-99999.0,'11111222,11111222,99999999' 
TABS,ioos:station:wmo:42049:1,2013-09-02T12:00:00Z,28.3507,-96.0058,2.0,50.05650203,8.504234239,-99999.0,'11133222,11111222,99999999' 
TABS,ioos:station:wmo:42049:1,2013-09-02T12:30:00Z,28.3507,-96.0058,2.0,65.17516496,10.4562039,-99999.0,'11111222,11111222,99999999' 
TABS,ioos:station:wmo:42049:1,2013-09-02T13:00:00Z,28.3507,-96.0058,2.0,63.5913958,13.10787931,-99999.0,'11111222,11111222,99999999' 
TABS,ioos:station:wmo:42049:1,2013-09-02T13:30:00Z,28.3507,-96.0058,2.0,69.0104916,9.436127384,-99999.0,'11133222,11111222,99999999' 
TABS,ioos:station:wmo:42049:1,2013-09-02T14:00:00Z,28.3507,-96.0058,2.0,83.25767659,11.32834498,-99999.0,'11111222,11111222,99999999' 
TABS,ioos:station:wmo:42049:1,2013-09-02T14:30:00Z,28.3507,-96.0058,2.0,80.67449499,13.0829087,-99999.0,'11111222,11111222,99999999' 
TABS,ioos:station:wmo:42049:1,2013-09-02T15:00:00Z,28.3507,-96.0058,2.0,84.05205239,10.80818671,-99999.0,'11111222,11111222,99999999' 
TABS,ioos:station:wmo:42049:1,2013-09-02T15:30:00Z,28.3507,-96.0058,2.0,79.43327411,13.3056379,-99999.0,'11111222,11111222,99999999' 
TABS,ioos:station:wmo:42049:1,2013-09-02T16:00:00Z,28.3507,-96.0058,2.0,83.37962738,13.09733561,-99999.0,'11111222,11111222,99999999' 
TABS,ioos:station:wmo:42049:1,2013-09-02T16:30:00Z,28.3507,-96.0058,2.0,77.6987893,12.01587284,-99999.0,'11111222,11111222,99999999' 
TABS,ioos:station:wmo:42049:1,2013-09-02T17:00:00Z,28.3507,-96.0058,2.0,154.8405465,40.10476904,-99999.0,'11111222,11111222,99999999' 
TABS,ioos:station:wmo:42049:1,2013-09-02T17:30:00Z,28.3507,-96.0058,2.0,157.9711187,33.70025519,-99999.0,'11111222,11111222,99999999' 
TABS,ioos:station:wmo:42049:1,2013-09-02T18:00:00Z,28.3507,-96.0058,2.0,158.019342,32.67511132,-99999.0,'11111222,11111222,99999999' 
TABS,ioos:station:wmo:42049:1,2013-09-02T18:30:00Z,28.3507,-96.0058,2.0,158.6696688,28.674187,-99999.0,'11111222,11111222,99999999' 
TABS,ioos:station:wmo:42049:1,2013-09-02T19:00:00Z,28.3507,-96.0058,2.0,167.7399674,24.72383668,-99999.0,'11111222,11111222,99999999' 
TABS,ioos:station:wmo:42049:1,2013-09-02T19:30:00Z,28.3507,-96.0058,2.0,171.0916744,21.24627497,-99999.0,'11111222,11111222,99999999' 
TABS,ioos:station:wmo:42049:1,2013-09-02T20:00:00Z,28.3507,-96.0058,2.0,181.9646146,19.5414892,-99999.0,'11111222,11111222,99999999' 
TABS,ioos:station:wmo:42049:1,2013-09-02T20:30:00Z,28.3507,-96.0058,2.0,178.2950652,18.48818271,-99999.0,'11111222,11111222,99999999' 
TABS,ioos:station:wmo:42049:1,2013-09-02T21:00:00Z,28.3507,-96.0058,2.0,197.9852341,15.31854432,-99999.0,'11111222,11111222,99999999' 
TABS,ioos:station:wmo:42049:1,2013-09-02T21:30:00Z,28.3507,-96.0058,2.0,213.5593725,13.40436496,-99999.0,'11111222,11111222,99999999' 
TABS,ioos:station:wmo:42049:1,2013-09-02T22:00:00Z,28.3507,-96.0058,2.0,227.814222,13.10435424,-99999.0,'11111222,11111222,99999999' 
TABS,ioos:station:wmo:42049:1,2013-09-02T22:30:00Z,28.3507,-96.0058,2.0,260.9588384,10.05491422,-99999.0,'11111222,11111222,99999999' 
TABS,ioos:station:wmo:42049:1,2013-09-02T23:00:00Z,28.3507,-96.0058,2.0,269.2203735,13.97129199,-99999.0,'11111222,11111222,99999999' 
TABS,ioos:station:wmo:42049:1,2013-09-02T23:30:00Z,28.3507,-96.0058,2.0,274.6537616,13.80550615,-99999.0,'11111222,11111222,99999999' 
TABS,ioos:station:wmo:42049:1,2013-09-03T00:00:00Z,28.3507,-96.0058,2.0,283.8242834,14.39701358,-99999.0,'11111222,11111222,99999999' 
TABS,ioos:station:wmo:42049:1,2013-09-03T00:30:00Z,28.3507,-96.0058,2.0,310.8863677,18.33301939,-99999.0,'11111222,11111222,99999999' 
TABS,ioos:station:wmo:42049:1,2013-09-03T01:00:00Z,28.3507,-96.0058,2.0,328.0407334,18.55208883,-99999.0,'11111222,11111222,99999999' 
TABS,ioos:station:wmo:42049:1,2013-09-03T01:30:00Z,28.3507,-96.0058,2.0,331.7806327,21.52889454,-99999.0,'11111222,11111222,99999999' 
TABS,ioos:station:wmo:42049:1,2013-09-03T02:00:00Z,28.3507,-96.0058,2.0,330.456864,21.51767878,-99999.0,'11111222,11111222,99999999' 
TABS,ioos:station:wmo:42049:1,2013-09-03T02:30:00Z,28.3507,-96.0058,2.0,334.3868533,23.96500991,-99999.0,'11111222,11111222,99999999' 
TABS,ioos:station:wmo:42049:1,2013-09-03T03:00:00Z,28.3507,-96.0058,2.0,355.1864272,24.66700833,-99999.0,'11111222,11111222,99999999' 
TABS,ioos:station:wmo:42049:1,2013-09-03T03:30:00Z,28.3507,-96.0058,2.0,4.792647265,24.77662205,-99999.0,'11111222,11111222,99999999' 
TABS,ioos:station:wmo:42049:1,2013-09-03T04:00:00Z,28.3507,-96.0058,2.0,17.59446672,28.45091211,-99999.0,'11111222,11111222,99999999' 
TABS,ioos:station:wmo:42049:1,2013-09-03T04:30:00Z,28.3507,-96.0058,2.0,20.86076018,29.06523869,-99999.0,'11111222,11111222,99999999' 
TABS,ioos:station:wmo:42049:1,2013-09-03T05:00:00Z,28.3507,-96.0058,2.0,21.39235343,23.66004649,-99999.0,'11111222,11111222,99999999' 
TABS,ioos:station:wmo:42049:1,2013-09-03T05:30:00Z,28.3507,-96.0058,2.0,22.53393152,21.50156273,-99999.0,'11111222,11111222,99999999' 
TABS,ioos:station:wmo:42049:1,2013-09-03T06:00:00Z,28.3507,-96.0058,2.0,15.42883173,23.4552702,-99999.0,'11111222,11111222,99999999' 
TABS,ioos:station:wmo:42049:1,2013-09-03T06:30:00Z,28.3507,-96.0058,2.0,17.00673816,28.03597867,-99999.0,'11111222,11111222,99999999' 
TABS,ioos:station:wmo:42049:1,2013-09-03T07:00:00Z,28.3507,-96.0058,2.0,18.85282532,26.45948034,-99999.0,'11111222,11111222,99999999' 
TABS,ioos:station:wmo:42049:1,2013-09-03T07:30:00Z,28.3507,-96.0058,2.0,26.575326,25.30334563,-99999.0,'11111222,11111222,99999999' 
TABS,ioos:station:wmo:42049:1,2013-09-03T08:00:00Z,28.3507,-96.0058,2.0,37.19458217,22.59636254,-99999.0,'11111222,11111222,99999999' 
TABS,ioos:station:wmo:42049:1,2013-09-03T08:30:00Z,28.3507,-96.0058,2.0,42.44492383,22.52253094,-99999.0,'11111222,11111222,99999999' 
TABS,ioos:station:wmo:42049:1,2013-09-03T09:00:00Z,28.3507,-96.0058,2.0,48.93337322,19.8953487,-99999.0,'11111222,11111222,99999999' 
TABS,ioos:station:wmo:42049:1,2013-09-03T09:30:00Z,28.3507,-96.0058,2.0,56.14416629,20.12183391,-99999.0,'11111222,11111222,99999999' 
TABS,ioos:station:wmo:42049:1,2013-09-03T10:00:00Z,28.3507,-96.0058,2.0,63.99163888,19.79460785,-99999.0,'11111222,11111222,99999999' 
TABS,ioos:station:wmo:42049:1,2013-09-03T10:30:00Z,28.3507,-96.0058,2.0,68.19320496,19.57043178,-99999.0,'11111222,11111222,99999999' 
TABS,ioos:station:wmo:42049:1,2013-09-03T11:00:00Z,28.3507,-96.0058,2.0,67.73252097,22.14118786,-99999.0,'11111222,11111222,99999999' 
TABS,ioos:station:wmo:42049:1,2013-09-03T11:30:00Z,28.3507,-96.0058,2.0,69.42559165,21.85392413,-99999.0,'11111222,11111222,99999999' 
TABS,ioos:station:wmo:42049:1,2013-09-03T12:00:00Z,28.3507,-96.0058,2.0,69.21265844,23.18955153,-99999.0,'11111222,11111222,99999999' 
TABS,ioos:station:wmo:42049:1,2013-09-03T12:30:00Z,28.3507,-96.0058,2.0,112.4999296,42.6462472,-99999.0,'11111222,11111222,99999999' 
TABS,ioos:station:wmo:42049:1,2013-09-03T13:00:00Z,28.3507,-96.0058,2.0,117.2384265,40.33250798,-99999.0,'11111222,11111222,99999999' 
TABS,ioos:station:wmo:42049:1,2013-09-03T13:30:00Z,28.3507,-96.0058,2.0,128.4705571,39.73550679,-99999.0,'11111222,11111222,99999999' 
TABS,ioos:station:wmo:42049:1,2013-09-03T14:00:00Z,28.3507,-96.0058,2.0,136.7506463,35.87413135,-99999.0,'11111222,11111222,99999999' 
TABS,ioos:station:wmo:42049:1,2013-09-03T14:30:00Z,28.3507,-96.0058,2.0,145.4296024,32.49817226,-99999.0,'11111222,11111222,99999999' 
TABS,ioos:station:wmo:42049:1,2013-09-03T15:00:00Z,28.3507,-96.0058,2.0,149.1221945,29.67614867,-99999.0,'11111222,11111222,99999999' 
TABS,ioos:station:wmo:42049:1,2013-09-03T15:30:00Z,28.3507,-96.0058,2.0,162.2706176,28.24128184,-99999.0,'11111222,11111222,99999999' 
TABS,ioos:station:wmo:42049:1,2013-09-03T16:00:00Z,28.3507,-96.0058,2.0,176.1048205,23.55440511,-99999.0,'11111222,11111222,99999999' 
TABS,ioos:station:wmo:42049:1,2013-09-03T16:30:00Z,28.3507,-96.0058,2.0,173.1523546,24.32349687,-99999.0,'11111222,11111222,99999999' 
TABS,ioos:station:wmo:42049:1,2013-09-03T17:00:00Z,28.3507,-96.0058,2.0,187.6359571,24.60823033,-99999.0,'11111222,11111222,99999999' 
TABS,ioos:station:wmo:42049:1,2013-09-03T17:30:00Z,28.3507,-96.0058,2.0,194.0031942,25.41531231,-99999.0,'11111222,11111222,99999999' 
TABS,ioos:station:wmo:42049:1,2013-09-03T18:00:00Z,28.3507,-96.0058,2.0,203.1806456,25.53122402,-99999.0,'11111222,11111222,99999999' 
TABS,ioos:station:wmo:42049:1,2013-09-03T18:30:00Z,28.3507,-96.0058,2.0,220.8555186,26.12519282,-99999.0,'11111222,11111222,99999999' 
TABS,ioos:station:wmo:42049:1,2013-09-03T19:00:00Z,28.3507,-96.0058,2.0,225.2163965,24.30343391,-99999.0,'11111222,11111222,99999999' 
TABS,ioos:station:wmo:42049:1,2013-09-03T19:30:00Z,28.3507,-96.0058,2.0,233.0942716,22.59800434,-99999.0,'11111222,11111222,99999999' 
TABS,ioos:station:wmo:42049:1,2013-09-03T20:00:00Z,28.3507,-96.0058,2.0,239.3219967,22.32424915,-99999.0,'11111222,11111222,99999999' 
TABS,ioos:station:wmo:42049:1,2013-09-03T20:30:00Z,28.3507,-96.0058,2.0,244.5883744,25.54107476,-99999.0,'11111222,11111222,99999999' 
TABS,ioos:station:wmo:42049:1,2013-09-03T21:00:00Z,28.3507,-96.0058,2.0,255.2329364,23.97174378,-99999.0,'11111222,11111222,99999999' 
TABS,ioos:station:wmo:42049:1,2013-09-03T21:30:00Z,28.3507,-96.0058,2.0,268.0136678,23.37403902,-99999.0,'11111222,11111222,99999999' 
TABS,ioos:station:wmo:42049:1,2013-09-03T22:00:00Z,28.3507,-96.0058,2.0,286.0206758,22.06699345,-99999.0,'11111222,11111222,99999999' 
TABS,ioos:station:wmo:42049:1,2013-09-03T22:30:00Z,28.3507,-96.0058,2.0,285.7596303,24.5217373,-99999.0,'11111222,11111222,99999999' 
TABS,ioos:station:wmo:42049:1,2013-09-03T23:00:00Z,28.3507,-96.0058,2.0,304.1809426,25.91654298,-99999.0,'11111222,11111222,99999999' 
TABS,ioos:station:wmo:42049:1,2013-09-03T23:30:00Z,28.3507,-96.0058,2.0,316.1793885,31.61436699,-99999.0,'11111222,11111222,99999999' 
TABS,ioos:station:wmo:42049:1,2013-09-04T00:00:00Z,28.3507,-96.0058,2.0,326.5510215,31.67643446,-99999.0,'11111222,11111222,99999999' 
TABS,ioos:station:wmo:42049:1,2013-09-04T00:30:00Z,28.3507,-96.0058,2.0,326.7461877,29.52477265,-99999.0,'11111222,11111222,99999999' 
TABS,ioos:station:wmo:42049:1,2013-09-04T01:00:00Z,28.3507,-96.0058,2.0,340.2560151,31.96948701,-99999.0,'11111222,11111222,99999999' 
TABS,ioos:station:wmo:42049:1,2013-09-04T01:30:00Z,28.3507,-96.0058,2.0,345.8819512,27.09853317,-99999.0,'11111222,11111222,99999999' 
TABS,ioos:station:wmo:42049:1,2013-09-04T02:00:00Z,28.3507,-96.0058,2.0,353.9902342,30.46745969,-99999.0,'11111222,11111222,99999999' 
TABS,ioos:station:wmo:42049:1,2013-09-04T02:30:00Z,28.3507,-96.0058,2.0,357.4700271,33.07224214,-99999.0,'11111222,11111222,99999999' 
TABS,ioos:station:wmo:42049:1,2013-09-04T03:00:00Z,28.3507,-96.0058,2.0,358.9642029,31.52515345,-99999.0,'11111222,11111222,99999999' 
TABS,ioos:station:wmo:42049:1,2013-09-04T03:30:00Z,28.3507,-96.0058,2.0,9.05980561,33.2143478,-99999.0,'11111222,11111222,99999999' 
TABS,ioos:station:wmo:42049:1,2013-09-04T10:30:00Z,28.3507,-96.0058,2.0,83.87870578,28.03987339,-99999.0,'11111222,11111222,99999999' 
TABS,ioos:station:wmo:42049:1,2013-09-04T11:00:00Z,28.3507,-96.0058,2.0,87.10853468,28.54634302,-99999.0,'11111222,11111222,99999999' 
TABS,ioos:station:wmo:42049:1,2013-09-04T11:30:00Z,28.3507,-96.0058,2.0,100.4014888,29.68786958,-99999.0,'11111222,11111222,99999999' 
TABS,ioos:station:wmo:42049:1,2013-09-04T12:00:00Z,28.3507,-96.0058,2.0,114.9458452,30.23029275,-99999.0,'11111222,11111222,99999999' 
TABS,ioos:station:wmo:42049:1,2013-09-04T12:30:00Z,28.3507,-96.0058,2.0,122.6693957,36.12503426,-99999.0,'11111222,11111222,99999999' 
TABS,ioos:station:wmo:42049:1,2013-09-04T13:00:00Z,28.3507,-96.0058,2.0,130.13448,37.68315539,-99999.0,'11111222,11111222,99999999' 
TABS,ioos:station:wmo:42049:1,2013-09-04T13:30:00Z,28.3507,-96.0058,2.0,134.8899693,33.17044015,-99999.0,'11111222,11111222,99999999' 
TABS,ioos:station:wmo:42049:1,2013-09-04T14:00:00Z,28.3507,-96.0058,2.0,140.9924082,32.17238723,-99999.0,'11111222,11111222,99999999' 
TABS,ioos:station:wmo:42049:1,2013-09-04T14:30:00Z,28.3507,-96.0058,2.0,153.819883,27.94700878,-99999.0,'11111222,11111222,99999999' 
TABS,ioos:station:wmo:42049:1,2013-09-04T15:00:00Z,28.3507,-96.0058,2.0,155.4631572,32.72523491,-99999.0,'11111222,11111222,99999999' 
TABS,ioos:station:wmo:42049:1,2013-09-04T15:30:00Z,28.3507,-96.0058,2.0,173.8338212,33.05120421,-99999.0,'11111222,11111222,99999999' 
TABS,ioos:station:wmo:42049:1,2013-09-04T16:00:00Z,28.3507,-96.0058,2.0,185.5012754,31.08317873,-99999.0,'11111222,11111222,99999999' 
TABS,ioos:station:wmo:42049:1,2013-09-04T16:30:00Z,28.3507,-96.0058,2.0,181.73372,29.413468,-99999.0,'11111222,11111222,99999999' 
TABS,ioos:station:wmo:42049:1,2013-09-04T17:00:00Z,28.3507,-96.0058,2.0,193.0524618,31.79140293,-99999.0,'11111222,11111222,99999999' 
TABS,ioos:station:wmo:42049:1,2013-09-04T17:30:00Z,28.3507,-96.0058,2.0,199.5992466,35.47543375,-99999.0,'11111222,11111222,99999999' 
TABS,ioos:station:wmo:42049:1,2013-09-04T18:00:00Z,28.3507,-96.0058,2.0,209.9102667,37.3209673,-99999.0,'11111222,11111222,99999999' 
TABS,ioos:station:wmo:42049:1,2013-09-04T18:30:00Z,28.3507,-96.0058,2.0,221.1488505,38.11425455,-99999.0,'11111222,11111222,99999999' 
TABS,ioos:station:wmo:42049:1,2013-09-04T19:00:00Z,28.3507,-96.0058,2.0,233.7601711,34.35607952,-99999.0,'11111222,11111222,99999999' 
TABS,ioos:station:wmo:42049:1,2013-09-04T19:30:00Z,28.3507,-96.0058,2.0,238.3787021,25.11933518,-99999.0,'11111222,11111222,99999999' 
TABS,ioos:station:wmo:42049:1,2013-09-04T20:00:00Z,28.3507,-96.0058,2.0,245.0489882,25.08074959,-99999.0,'11111222,11111222,99999999' 
TABS,ioos:station:wmo:42049:1,2013-09-04T20:30:00Z,28.3507,-96.0058,2.0,257.0257098,26.94791458,-99999.0,'11111222,11111222,99999999' 
TABS,ioos:station:wmo:42049:1,2013-09-04T21:00:00Z,28.3507,-96.0058,2.0,263.1634976,23.85962489,-99999.0,'11111222,11111222,99999999' 
TABS,ioos:station:wmo:42049:1,2013-09-04T21:30:00Z,28.3507,-96.0058,2.0,267.9673604,24.81560799,-99999.0,'11111222,11111222,99999999' 
TABS,ioos:station:wmo:42049:1,2013-09-04T22:00:00Z,28.3507,-96.0058,2.0,279.1081793,19.39451984,-99999.0,'11111222,11111222,99999999' 
TABS,ioos:station:wmo:42049:1,2013-09-04T22:30:00Z,28.3507,-96.0058,2.0,282.5500451,26.83104545,-99999.0,'11111222,11111222,99999999' 